(227357) = 2005 UN125

Discovered at Kitt Peak on 2005-10-24 by Spacewatch.

Orbit

Orbit type: Main Belt

Note: WebGL enabled browser required.

epoch2024-03-31.0
epoch JD2460400.5
perihelion date2020-03-04.74901
perihelion JD2458913.24901
argument of perihelion (°)319.06042
ascending node (°)235.28096
inclination (°)5.23414
eccentricity0.0696274
perihelion distance (AU)2.4303046
Tisserand w.r.t. Jupiter3.4
ΔV w.r.t. Earth (km/sec)9.9
semimajor axis (AU)2.6121842
mean anomaly (°)347.20216
mean daily motion (°/day)0.23345230
aphelion distance (AU)2.794
period (years)4.22
P-vector [x]-0.96659125
P-vector [y]-0.20490909
P-vector [z]-0.15399228
Q-vector [x]0.24510979
Q-vector [y]-0.91465637
Q-vector [z]-0.32144193
absolute magnitude16.78
phase slope0.15
uncertainty0
referenceMPEC 2024-F50
observations used271
oppositions15
arc length (days)10027
first opposition used1996
last opposition used2024
residual rms (arc-secs)0.76
perturbers coarse indicatorM-v
perturbers precise indicator003Ek
first observation date used1996-10-05.0
last observation date used2024-03-19.0
computer nameMPCLINUX
JD of orbit computation2456612.699145
perihelion JD uncertainty (days)2.2500E-04
argument of perihelion uncertainty (°)8.0798E-05
ascending node uncertainty (°)6.3343E-05
inclination uncertainty (°)7.7661E-06
eccentricity uncertainty 7.5908E-08
perihelion distance uncertainty (AU)1.9567E-07
Minimum Orbit Intersection Distances (in AU)
for orbit epoch: 2460400.5, reference: E2024-G95
Mercury1.99949
Venus1.7149
Earth1.43135
Mars0.80857
Jupiter2.17721
Saturn6.36084
Uranus15.9965
Neptune27.0441

Observations

291 total observations over interval: 1996 10 05.24243 – 2024 03 19.254821
These data are available for download (format description).

Date (UT) J2000 RA J2000 Dec Magn Location Ref
1996 10 05.24243 23 32 55.04 +04 11 59.8 20.9 V 691 – Steward Observatory, Kitt Peak-Spacewatch MPS 204618
1996 10 05.26330 23 32 54.11 +04 11 51.5   691 – Steward Observatory, Kitt Peak-Spacewatch MPS 204618
1996 10 05.28408 23 32 53.25 +04 11 43.0   691 – Steward Observatory, Kitt Peak-Spacewatch MPS 204618
2005 10 24.32019 03 29 17.70 +20 15 17.0 20.9 V 691 – Steward Observatory, Kitt Peak-Spacewatch MPS 147953
2005 10 24.33758 03 29 16.86 +20 15 12.5 20.9 V 691 – Steward Observatory, Kitt Peak-Spacewatch MPS 147953
2005 10 24.35495 03 29 16.04 +20 15 08.4 20.6 V 691 – Steward Observatory, Kitt Peak-Spacewatch MPS 147953
2005 10 27.36205 03 26 56.29 +20 02 08.8 20.3 V G96 – Mt. Lemmon Survey MPS 147953
2005 10 27.36885 03 26 55.96 +20 02 06.0 20.1 V G96 – Mt. Lemmon Survey MPS 147953
2005 10 27.37571 03 26 55.57 +20 02 04.9 20.2 V G96 – Mt. Lemmon Survey MPS 147953
2005 10 27.38256 03 26 55.24 +20 02 02.8 20.4 V G96 – Mt. Lemmon Survey MPS 147953
2005 10 28.24700 03 26 13.53 +19 58 09.4 21.0 V 691 – Steward Observatory, Kitt Peak-Spacewatch MPS 147953
2005 10 28.26430 03 26 12.66 +19 58 04.9 20.9 V 691 – Steward Observatory, Kitt Peak-Spacewatch MPS 147953
2005 10 28.28177 03 26 11.77 +19 58 00.6 21.0 V 691 – Steward Observatory, Kitt Peak-Spacewatch MPS 147953
2005 11 05.30534 03 19 13.11 +19 18 43.5 20.6 V 691 – Steward Observatory, Kitt Peak-Spacewatch MPS 149779
2005 11 05.32802 03 19 11.79 +19 18 36.8 20.6 V 691 – Steward Observatory, Kitt Peak-Spacewatch MPS 149779
2005 11 05.35156 03 19 10.48 +19 18 29.4 20.7 V 691 – Steward Observatory, Kitt Peak-Spacewatch MPS 149779
2005 11 26.29229 03 00 07.27 +17 23 35.5 20.7 V G96 – Mt. Lemmon Survey MPS 152255
2005 11 26.29917 03 00 06.94 +17 23 32.8 20.4 V G96 – Mt. Lemmon Survey MPS 152255
2005 11 26.30616 03 00 06.58 +17 23 30.5 20.6 V G96 – Mt. Lemmon Survey MPS 152255
2005 11 26.31324 03 00 06.22 +17 23 27.3 20.0 V G96 – Mt. Lemmon Survey MPS 152255
2005 12 02.22001 02 55 29.67 +16 52 46.1 20.6 V G96 – Mt. Lemmon Survey MPS 153779
2005 12 02.22929 02 55 29.28 +16 52 43.4 20.6 V G96 – Mt. Lemmon Survey MPS 153779
2005 12 02.23844 02 55 28.88 +16 52 40.8 20.9 V G96 – Mt. Lemmon Survey MPS 153779
2005 12 02.24759 02 55 28.45 +16 52 38.2 20.5 V G96 – Mt. Lemmon Survey MPS 153779
2007 03 15.22578 10 33 17.46 +00 19 23.1 19.5 V 703 – Catalina Sky Survey MPS 204618
2007 03 15.23510 10 33 16.92 +00 19 26.7 20.1 V 703 – Catalina Sky Survey MPS 204618
2007 03 15.24443 10 33 16.45 +00 19 30.6 19.8 V 703 – Catalina Sky Survey MPS 204618
2007 03 15.25379 10 33 16.12 +00 19 33.7 20.3 V 703 – Catalina Sky Survey MPS 204618
2007 03 21.28653 10 28 57.89 +00 58 13.9 19.3   704 – Lincoln Laboratory ETS, New Mexico MPS 204618
2007 03 21.31905 10 28 56.51 +00 58 26.3 20.0   704 – Lincoln Laboratory ETS, New Mexico MPS 204618
2007 03 21.32980 10 28 56.12 +00 58 30.0 20.0   704 – Lincoln Laboratory ETS, New Mexico MPS 204618
2007 05 13.22241 10 29 45.18 +03 44 57.1 21.1 V F85 – Tiki Observatory, Punaauia MPS 208957
2007 05 13.25868 10 29 46.50 +03 44 54.4 21.2 V F85 – Tiki Observatory, Punaauia MPS 208957
2009 09 16.41109 02 07 49.82 +17 20 49.5 20.9 V 691 – Steward Observatory, Kitt Peak-Spacewatch MPS 295015
2009 09 16.42876 02 07 49.39 +17 20 47.2 20.9 V 691 – Steward Observatory, Kitt Peak-Spacewatch MPS 295015
2009 09 16.44641 02 07 48.97 +17 20 45.1 20.7 V 691 – Steward Observatory, Kitt Peak-Spacewatch MPS 295015
2009 09 20.41883 02 06 09.89 +17 11 11.3 21.1 V 691 – Steward Observatory, Kitt Peak-Spacewatch MPS 295849
2009 09 20.43666 02 06 09.39 +17 11 08.5 20.8 V 691 – Steward Observatory, Kitt Peak-Spacewatch MPS 295849
2009 09 20.45434 02 06 08.86 +17 11 05.7 20.6 V 691 – Steward Observatory, Kitt Peak-Spacewatch MPS 295849
2009 09 24.42262 02 04 07.89 +16 59 01.8 20.8 V 691 – Steward Observatory, Kitt Peak-Spacewatch MPS 295849
2009 09 24.44031 02 04 07.24 +16 58 58.2 20.8 V 691 – Steward Observatory, Kitt Peak-Spacewatch MPS 295849
2009 09 24.45802 02 04 06.63 +16 58 54.6 20.8 V 691 – Steward Observatory, Kitt Peak-Spacewatch MPS 295849
2009 09 28.41158 02 01 45.85 +16 44 28.0 20.8 V 691 – Steward Observatory, Kitt Peak-Spacewatch MPS 296937
2009 09 28.42923 02 01 45.13 +16 44 22.6 20.7 V 691 – Steward Observatory, Kitt Peak-Spacewatch MPS 296937
2009 09 28.44686 02 01 44.41 +16 44 18.3 20.7 V 691 – Steward Observatory, Kitt Peak-Spacewatch MPS 296937
2009 10 21.34052 01 43 38.24 +14 40 10.7 20.4 V G96 – Mt. Lemmon Survey MPS 299392
2009 10 21.34794 01 43 37.81 +14 40 07.8 20.5 V G96 – Mt. Lemmon Survey MPS 299392
2009 10 21.35527 01 43 37.38 +14 40 04.9 20.5 V G96 – Mt. Lemmon Survey MPS 299392
2009 11 24.06584 01 20 30.58 +11 14 33.0 21.5 V 691 – Steward Observatory, Kitt Peak-Spacewatch MPS 304923
2009 11 24.07642 01 20 30.36 +11 14 30.2 21.0 V 691 – Steward Observatory, Kitt Peak-Spacewatch MPS 304923
2009 11 24.08700 01 20 30.14 +11 14 27.1 20.9 V 691 – Steward Observatory, Kitt Peak-Spacewatch MPS 304923
2011 01 30.34060 08 59 15.154 +08 23 32.11 20.5 w F51 – Pan-STARRS 1, Haleakala MPS 379583
2011 01 30.35518 08 59 14.307 +08 23 34.93 20.4 w F51 – Pan-STARRS 1, Haleakala MPS 379583
2011 01 30.37078 08 59 13.400 +08 23 37.80 20.4 w F51 – Pan-STARRS 1, Haleakala MPS 379583
2011 01 30.38533 08 59 12.553 +08 23 40.54 20.4 w F51 – Pan-STARRS 1, Haleakala MPS 379583
2012 05 21.49482 17 53 40.464 -20 17 44.44 20.6 r F51 – Pan-STARRS 1, Haleakala MPS 425855
2012 05 21.50417 17 53 40.076 -20 17 42.87 20.7 r F51 – Pan-STARRS 1, Haleakala MPS 425855
2012 05 21.51379 17 53 39.683 -20 17 41.08 21.2 g F51 – Pan-STARRS 1, Haleakala MPS 425855
2013 09 03.55644 00 40 07.318 +11 04 01.87 21.1 g F51 – Pan-STARRS 1, Haleakala MPS 475916
2013 09 03.56812 00 40 06.906 +11 03 59.56 21.2 g F51 – Pan-STARRS 1, Haleakala MPS 475916
2013 09 06.25277 00 38 33.35 +10 55 03.9 21.5 V 691 – Steward Observatory, Kitt Peak-Spacewatch MPS 475916
2013 09 06.27048 00 38 32.67 +10 55 00.0 20.9 V 691 – Steward Observatory, Kitt Peak-Spacewatch MPS 475916
2013 09 06.28818 00 38 32.01 +10 54 56.5 20.8 V 691 – Steward Observatory, Kitt Peak-Spacewatch MPS 475916
2013 10 26.21485 00 01 54.66 +05 55 20.6 20.8 V G96 – Mt. Lemmon Survey MPS 484931
2013 10 26.22004 00 01 54.50 +05 55 18.9 20.5 V G96 – Mt. Lemmon Survey MPS 484931
2013 10 26.22523 00 01 54.34 +05 55 16.9 20.2 V G96 – Mt. Lemmon Survey MPS 484931
2013 10 26.23042 00 01 54.16 +05 55 15.0 20.7 V G96 – Mt. Lemmon Survey MPS 484931
2013 11 01.15091 23 59 17.49 +05 22 21.9 20.6 V G96 – Mt. Lemmon Survey MPS 486814
2013 11 01.15866 23 59 17.34 +05 22 20.1 20.1 V G96 – Mt. Lemmon Survey MPS 486814
2013 11 01.16642 23 59 17.15 +05 22 17.6 20.5 V G96 – Mt. Lemmon Survey MPS 486814
2013 11 01.17418 23 59 16.93 +05 22 15.2 20.5 V G96 – Mt. Lemmon Survey MPS 486814
2014 12 18.56110 07 31 30.888 +15 46 41.26 20.9 r F51 – Pan-STARRS 1, Haleakala MPS 557624
2014 12 18.57239 07 31 30.354 +15 46 40.73 20.7 r F51 – Pan-STARRS 1, Haleakala MPS 557624
2014 12 18.58347 07 31 29.847 +15 46 40.19 20.7 r F51 – Pan-STARRS 1, Haleakala MPS 557624
2014 12 18.59454 07 31 29.329 +15 46 39.42 20.6 r F51 – Pan-STARRS 1, Haleakala MPS 557624
2016 03 17.56988 15 56 41.426 -22 17 41.75 20.9 w F51 – Pan-STARRS 1, Haleakala MPS 695227
2016 03 17.59232 15 56 41.961 -22 17 42.02 21.0 w F51 – Pan-STARRS 1, Haleakala MPS 695227
2016 03 17.60355 15 56 42.227 -22 17 42.08 20.8 w F51 – Pan-STARRS 1, Haleakala MPS 695227
2016 04 14.59043 15 57 13.752 -21 36 19.48 20.5 w F51 – Pan-STARRS 1, Haleakala MPS 703228
2016 04 14.59833 15 57 13.546 -21 36 17.94 20.5 w F51 – Pan-STARRS 1, Haleakala MPS 703228
2016 04 14.60622 15 57 13.349 -21 36 16.41 20.5 w F51 – Pan-STARRS 1, Haleakala MPS 703228
2016 04 14.61411 15 57 13.143 -21 36 14.88 20.6 w F51 – Pan-STARRS 1, Haleakala MPS 703228
2016 05 03.37237 15 45 26.13 -20 20 07.1 20.2 V G96 – Mt. Lemmon Survey MPS 707829
2016 05 03.37642 15 45 25.93 -20 20 05.7 20.1 V G96 – Mt. Lemmon Survey MPS 707829
2016 05 03.38045 15 45 25.73 -20 20 04.7 20.2 V G96 – Mt. Lemmon Survey MPS 707829
2016 05 03.38448 15 45 25.52 -20 20 03.5 20.4 V G96 – Mt. Lemmon Survey MPS 707829
2016 05 10.31099 15 39 29.27 -19 44 08.5 19.8 r G45 – Space Surveillance Telescope, Atom Site MPS 709637
